EW1065 Weather Reports


Display with metric or nautical units.
time (UTC)temp
F
wind
direction
speed
MPH
gust
MPH
rain 1hr
in
rain 24hr
in
rain mn
in
humidity
%
barometer
mb
20260905224519 89 0.0 0.0 0.00 0.54 0.54 76 1012.0
20260905223559 91 0.0 0.0 0.00 0.54 0.54 71 1011.7
20260905222519 94 0.0 0.0 0.00 0.54 0.54 63 1011.7
20260905221519 94 0.0 0.0 0.00 0.54 0.54 60 1012.0
20260905220519 95 0.0 0.0 0.00 0.54 0.54 60 1012.0
20260905215519 96 0.0 2.0 0.00 0.54 0.54 53 1011.9
20260905214519 97 0.0 0.0 0.00 0.54 0.54 54 1012.0
20260905213519 95 0.0 1.0 0.00 0.54 0.54 55 1012.1
20260905212519 95 0.0 3.0 0.00 0.54 0.54 52 1012.0
20260905211519 96 0.0 1.0 0.00 0.54 0.54 53 1012.0
20260905210559 96 225 1.0 3.0 0.00 0.54 0.54 52 1012.1
20260905205519 96 0.0 1.0 0.00 0.54 0.54 51 1012.2
20260905204519 95 0.0 1.0 0.00 0.54 0.54 53 1012.2
20260905203559 95 23 1.0 4.0 0.00 0.54 0.54 55 1012.4
20260905202519 95 0.0 1.0 0.00 0.54 0.54 55 1012.4
20260905201519 95 338 1.0 3.0 0.00 0.54 0.54 55 1012.6
20260905200559 95 0.0 3.0 0.00 0.54 0.54 52 1012.8
20260905195519 96 0.0 1.0 0.00 0.54 0.54 55 1012.9
20260905194519 96 225 1.0 2.0 0.00 0.54 0.54 55 1013.0
20260905193520 95 0.0 1.0 0.00 0.54 0.54 52 1013.1
20260905192519 95 0.0 1.0 0.00 0.54 0.54 52 1013.4
20260905191559 95 0.0 3.0 0.00 0.54 0.54 52 1013.5
20260905190519 94 0.0 2.0 0.00 0.54 0.54 51 1013.7
20260905185519 94 0.0 1.0 0.00 0.54 0.54 51 1013.7
20260905184559 94 248 1.0 3.0 0.00 0.54 0.54 54 1013.8
20260905183559 94 0.0 2.0 0.00 0.54 0.54 56 1013.8
20260905182519 93 0.0 1.0 0.00 0.54 0.54 58 1013.8
20260905181519 92 0.0 2.0 0.00 0.54 0.54 53 1014.1
20260905180519 92 0.0 2.0 0.00 0.54 0.54 54 1014.2
20260905175519 92 0.0 2.0 0.00 0.54 0.54 56 1014.3
20260905174519 91 0.0 3.0 0.00 0.54 0.54 54 1014.4
20260905173519 91 248 1.0 3.0 0.00 0.54 0.54 59 1014.5
20260905172519 91 0.0 2.0 0.00 0.54 0.54 57 1014.6
20260905171519 90 0.0 2.0 0.00 0.54 0.54 58 1014.6
20260905170519 89 0.0 1.0 0.00 0.54 0.54 60 1014.6
20260905165600 89 0.0 4.0 0.00 0.54 0.54 59 1014.8
20260905164519 89 0.0 2.0 0.00 0.54 0.54 61 1015.1
20260905163519 88 0.0 2.0 0.00 0.54 0.54 62 1015.2
20260905162519 87 0.0 1.0 0.00 0.54 0.54 63 1015.4
20260905161519 86 0.0 0.0 0.00 0.54 0.54 64 1015.0
20260905160519 85 0.0 3.0 0.00 0.54 0.54 70 1015.1
20260905155559 84 0.0 1.0 0.00 0.54 0.54 71 1015.0
20260905154559 84 270 1.0 4.0 0.00 0.54 0.54 71 1015.2
20260905153519 83 0.0 1.0 0.00 0.54 0.54 74 1015.1
20260905152519 82 225 1.0 4.0 0.00 0.54 0.54 75 1015.1
20260905151519 81 0.0 1.0 0.00 0.54 0.54 79 1015.1
20260905150519 80 0.0 1.0 0.00 0.54 0.54 81 1015.1
20260905145519 79 158 1.0 4.0 0.00 0.54 0.54 82 1015.1
20260905144559 77 0.0 1.0 0.00 0.54 0.54 86 1015.2
20260905143519 76 0.0 1.0 0.00 0.54 0.54 90 1015.4
20260905142519 75 0.0 1.0 0.00 0.54 0.54 94 1015.5
20260905141519 74 0.0 2.0 0.00 0.54 0.54 96 1015.8
20260905140519 73 0.0 2.0 0.00 0.54 0.54 97 1015.8
20260905135519 72 0.0 1.0 0.00 0.54 0.54 98 1015.7
20260905134559 72 0.0 1.0 0.00 0.54 0.54 98 1015.6
20260905133519 72 0.0 3.0 0.00 0.54 0.54 98 1015.8
20260905132519 72 0.0 2.0 0.00 0.54 0.54 99 1016.2
20260905131559 72 0.0 2.0 0.00 0.54 0.54 99 1016.2
20260905130519 72 0.0 1.0 0.00 0.54 0.54 99 1016.5
20260905125519 71 0.0 1.0 0.00 0.54 0.54 99 1016.1
20260905124559 71 0.0 1.0 0.03 0.54 0.54 99 1016.1
20260905123519 72 0.0 1.0 0.13 0.54 0.54 99 1016.1
20260905122519 72 0.0 4.0 0.13 0.54 0.54 99 1016.0
20260905121519 72 293 1.0 5.0 0.13 0.54 0.54 99 1015.9
20260905120519 72 0.0 0.0 0.13 0.54 0.54 99 1014.7
20260905115519 72 0.0 1.0 0.13 0.54 0.54 99 1014.4
20260905114519 72 0.0 2.0 0.10 0.51 0.51 99 1015.2
20260905113519 72 0.0 0.0 0.00 0.41 0.41 99 1015.1
20260905112519 72 0.0 1.0 0.00 0.41 0.41 99 1014.8
20260905111519 72 0.0 2.0 0.00 0.41 0.41 99 1014.8
20260905110559 72 0.0 1.0 0.00 0.41 0.41 99 1015.1
20260905105519 73 0.0 0.0 0.00 0.41 0.41 99 1014.9
20260905104520 73 0.0 0.0 0.00 0.41 0.41 99 1014.8
20260905103519 73 0.0 0.0 0.00 0.41 0.41 98 1015.0
20260905102519 73 0.0 0.0 0.07 0.41 0.41 98 1014.5
20260905101519 74 0.0 0.0 0.30 0.41 0.41 98 1014.3
20260905100519 74 0.0 1.0 0.41 0.41 0.41 98 1014.1
20260905095519 74 0.0 0.0 0.41 0.41 0.41 97 1014.2
20260905094519 74 0.0 0.0 0.41 0.41 0.41 96 1014.0
20260905093519 75 0.0 4.0 0.41 0.41 0.41 95 1013.9
20260905092601 75 45 2.0 10.0 0.34 0.34 0.34 95 1014.6
20260905091519 76 248 2.0 9.0 0.11 0.11 0.12 98 1014.7
20260905090519 75 0.0 0.0 0.00 0.00 0.00 98 1013.6
20260905085519 75 0.0 0.0 0.00 0.00 0.00 99 1013.9
20260905084519 75 0.0 2.0 0.00 0.00 0.00 99 1014.1
20260905083519 74 0.0 0.0 0.00 0.00 0.00 99 1013.6
20260905082559 74 0.0 0.0 0.00 0.00 0.00 99 1013.8
20260905081519 74 0.0 0.0 0.00 0.00 0.00 98 1013.8
20260905080519 74 0.0 0.0 0.00 0.00 0.00 98 1013.6
20260905075519 74 0.0 0.0 0.00 0.00 0.00 98 1013.4
20260905074519 74 0.0 0.0 0.00 0.00 0.00 98 1013.7
20260905073519 74 0.0 0.0 0.00 0.00 0.00 98 1013.7
20260905072519 74 0.0 0.0 0.00 0.00 0.00 98 1013.9
20260905071519 74 0.0 0.0 0.00 0.00 0.00 98 1014.1
20260905070559 74 0.0 0.0 0.00 0.00 0.00 98 1014.0
20260905065519 74 0.0 0.0 0.00 0.00 0.00 98 1014.3
20260905064519 74 0.0 0.0 0.00 0.00 0.00 98 1014.3
20260905063522 74 0.0 0.0 0.00 0.00 0.00 98 1014.4
20260905062519 74 0.0 0.0 0.00 0.00 0.00 98 1014.6
20260905061519 74 0.0 0.0 0.00 0.00 0.00 97 1014.7
20260905060519 75 0.0 0.0 0.00 0.00 0.00 97 1014.9
20260905055600 75 0.0 0.0 0.00 0.00 0.00 97 1014.9
20260905054519 75 0.0 0.0 0.00 0.00 0.00 97 1014.9
20260905053519 75 0.0 0.0 0.00 0.00 0.00 97 1014.8
20260905052519 75 0.0 0.0 0.00 0.00 0.00 97 1014.9
20260905051519 75 0.0 0.0 0.00 0.00 0.00 97 1014.9
20260905050520 75 0.0 0.0 0.00 0.00 0.00 96 1014.9
20260905045519 76 0.0 0.0 0.00 0.00 0.00 96 1014.9
20260905044519 76 0.0 0.0 0.00 0.00 0.00 96 1015.1
20260905043519 76 0.0 0.0 0.00 0.00 0.00 96 1015.1
20260905042520 76 0.0 0.0 0.00 0.00 0.00 96 1015.1
20260905041559 76 0.0 0.0 0.00 0.00 0.00 96 1015.2
20260905040519 76 0.0 0.0 0.00 0.00 0.00 95 1015.0
20260905035519 76 0.0 0.0 0.00 0.00 0.00 95 1015.1
20260905034519 77 0.0 0.0 0.00 0.00 0.00 95 1015.0
20260905033519 77 0.0 0.0 0.00 0.00 0.00 95 1015.1
20260905032519 77 0.0 0.0 0.00 0.00 0.00 95 1015.0
20260905031519 77 0.0 0.0 0.00 0.00 0.00 95 1015.1
20260905030520 77 0.0 0.0 0.00 0.00 0.00 95 1015.0
20260905025519 77 0.0 0.0 0.00 0.00 0.00 94 1015.1
20260905024519 78 0.0 0.0 0.00 0.00 0.00 94 1015.1
20260905023519 78 0.0 0.0 0.00 0.00 0.00 94 1015.0
20260905021519 78 0.0 0.0 0.00 0.00 0.00 94 1014.8
20260905020600 78 0.0 0.0 0.00 0.00 0.00 93 1014.7
20260905015519 79 0.0 0.0 0.00 0.00 0.00 93 1014.7
20260905014600 79 0.0 0.0 0.00 0.00 0.00 92 1014.5
20260905013520 79 0.0 0.0 0.00 0.00 0.00 92 1014.5
20260905012519 79 0.0 0.0 0.00 0.00 0.00 92 1014.3
20260905011519 80 0.0 0.0 0.00 0.00 0.00 91 1014.1
20260905010519 80 0.0 0.0 0.00 0.00 0.00 90 1014.1
20260905005519 81 0.0 0.0 0.00 0.00 0.00 90 1013.9
20260905004520 81 0.0 0.0 0.00 0.00 0.00 89 1013.8
20260905003519 82 0.0 0.0 0.00 0.00 0.00 88 1013.7
20260905002519 82 0.0 0.0 0.00 0.00 0.00 86 1013.7
20260905001519 83 0.0 0.0 0.00 0.00 0.00 85 1013.5
20260905000520 84 0.0 0.0 0.00 0.00 0.00 84 1013.6
20260904235519 85 0.0 0.0 0.00 0.00 0.00 82 1013.6
20260904234519 87 0.0 0.0 0.00 0.00 0.00 79 1013.6
20260904233519 88 0.0 0.0 0.00 0.00 0.00 76 1013.6
20260904232519 89 0.0 0.0 0.00 0.00 0.00 75 1013.6
20260904231519 90 0.0 0.0 0.00 0.00 0.00 73 1013.8
20260904230639 92 0.0 0.0 0.00 0.00 0.00 70 1013.9
20260904225520 94 0.0 0.0 0.00 0.00 0.00 65 1014.1